Location: Olsztyn
(53.7767°N, 20.4765°E)
Time: 20:42:12
(UTC+02:00)

Envisat - Pass Details

Date: 27 February 2024
Orbit: 762 x 764 km, 98.3° (Epoch: 20 April)

Event Time Altitude Azimuth Distance (km) Brightness Sun altitude
Rises 01:32:40 0° 28° (NNE) 3,245 7.1 -40.4°
Reaches altitude 10° 01:36:18 10° 55° (NE) 2,311 6.1 -40.1°
Enters shadow 01:38:05 13° 75° (ENE) 2,097 5.7 -40.0°
